Location: Cisewo
(53.3833°N, 14.9000°E)
Time: 10:40:59
(UTC+00:00)

Meteor 1-4 Rocket - Pass Details

Date: 18 April 2021
Orbit: 448 x 498 km, 81.2° (Epoch: 14 May)

Event Time Altitude Azimuth Distance (km) Brightness Sun altitude
Exits shadow 21:10:14 74° 273° (W) 483 2.5 -21.4°
Maximum altitude 21:10:17 74° 284° (WNW) 482 2.5 -21.4°
Drops below altitude 10° 21:13:49 10° 10° (N) 1,623 5.9 -21.6°
Sets 21:15:57 0° 13° (NNE) 2,512 7.0 -21.8°
